Location: Newark
(21.8258°S, 114.1586°E)
Time: 05:02:34
(UTC+00:00)

Hubble Space Telescope - Pass Details

Date: 19 December 2019
Orbit: 536 x 540 km, 28.5° (Epoch: 20 January)

Event Time Altitude Azimuth Distance (km) Brightness Sun altitude
Rises 13:17:29 0° 257° (WSW) 2,683 5.3 -26.6°
Reaches altitude 10° 13:19:50 10° 264° (W) 1,789 4.1 -27.0°
Enters shadow 13:21:58 26° 282° (WNW) 1,066 2.5 -27.3°
